Gabriel Castillo

Chefscout - Caracas
9 Okt 2027
Samstag
Verarbeitung

Persönlichkeit

Anpassungsfähigkeit (6) Ehrgeiz (10) Kontroverse (20) Loyalität (12) Druck (9) Professionalität (13) Fairness (13) Temperament (12)

Profil

Trainerstil Demokratisch
Lizenz Kontinentale C
Entschlossenheit 7
Menschenführung 11
Motivation 6
Disziplin 10
Arbeitszufriedenheit
93%
Ermüdung
0%
Rolle Chefscout
Gehalt 23.2K p/W
Vertrag 14.03.2030

Leistung

Verhalten Gut
Trainingseffektivität
26%
Spielerentwicklung
40%
Verletzungsprävention
20%
Taktische Umsetzung
20%

Letzte Ereignisse

Nahm an einer Scouting-Besprechung teil jetzt
Nahm an einer Scouting-Besprechung teil jetzt
Spieler begutachtet jetzt
Spieler begutachtet jetzt
Nahm an einer Scouting-Besprechung teil 7T her
Spieler begutachtet 7T her
Spieler begutachtet 7T her
Spieler begutachtet 7T her

Aktuell beobachtet

174
Spieler Verein Status Fähigkeit Vertrauen Beobachtet Zuletzt beobachtet Letzte Stimme
Luca Franco Arsenal Aktiv 109 / 117 40% 6 08.10.2027 -
Juan Mendoza Güemes Aktiv 110 / 103 40% 2 08.10.2027 -
Agustín Lavezzi Quilmes Aktiv 113 / 108 40% 1 08.10.2027 -
Adalberto Peñaranda Deportivo Tachira Aktiv 110 / 115 40% 4 06.10.2027 -
Facundo Castelli Estudiantes Aktiv 124 / 118 40% 2 06.10.2027 -
Axel Pedrozo Almagro Aktiv 92 / 84 40% 2 06.10.2027 -
Franco Fagúndez Estudiantes Aktiv 121 / 117 40% 1 06.10.2027 -
Alan Torterolo Defensor Sporting Aktiv 97 / 101 40% 1 06.10.2027 -
Ian Subiabre River Plate Aktiv 120 / 135 40% 1 06.10.2027 -
Thiago Balbuena Lanús Aktiv 96 / 101 40% 1 05.10.2027 -
Seymour Reid New York City Aktiv 102 / 111 40% 1 05.10.2027 -
Juan David Rueda Alianza Petrolera Aktiv 112 / 110 40% 3 02.10.2027 -
Enzo González Defensores Aktiv 111 / 109 40% 1 02.10.2027 -
Santiago Sala Güemes Aktiv 118 / 111 40% 1 02.10.2027 -
Marcos Camarda Santiago Wanderers Aktiv 110 / 103 40% 4 01.10.2027 -
Tomás Fernández Aldosivi Aktiv 122 / 119 40% 2 01.10.2027 -
Lucas Ríos Atlanta Aktiv 114 / 114 40% 1 01.10.2027 -
Carlos Gugenheim Almirante Brown Aktiv 113 / 112 40% 4 29.09.2027 -
Cristian Arango San Jose Earthquakes Aktiv 141 / 123 40% 3 29.09.2027 -
Lautaro Gordillo Colegiales Aktiv 119 / 114 40% 1 29.09.2027 -
Rodrigo Pollero Deportivo Tachira Aktiv 113 / 111 40% 9 27.09.2027 -
Kelvin Flórez Junior Aktiv 121 / 112 40% 3 27.09.2027 -
Fabricio Rojas Gimnasia y Tiro Aktiv 106 / 116 40% 8 25.09.2027 -
Nicolás Fernández Belgrano Aktiv 122 / 132 40% 2 25.09.2027 -
Thiago Calone All Boys Aktiv 123 / 111 40% 1 25.09.2027 -
Lisandro Cabrera Maipú Aktiv 112 / 118 40% 2 21.09.2027 -
Marco Miori Alvarado Aktiv 111 / 110 40% 3 21.09.2027 -
Bruno Barticciotto Talleres Aktiv 125 / 132 40% 1 19.09.2027 -
Tiziano Dornell Almagro Aktiv 111 / 114 40% 1 19.09.2027 -
Oscar Osorio Atletico Venezuela Aktiv 108 / 106 40% 6 15.09.2027 -
Augusto Berrondo Tristán Suárez Aktiv 109 / 103 40% 1 15.09.2027 -
Gonzalo Flores Almirante Brown Aktiv 116 / 107 40% 1 15.09.2027 -
Eric Ramírez Carabobo Aktiv 118 / 120 40% 10 13.09.2027 -
Martín Álvarez Tristán Suárez Aktiv 104 / 104 40% 1 12.09.2027 -
Jhonatan Candia Barracas Central Aktiv 131 / 115 40% 1 12.09.2027 -
Santiago Apa All Boys Aktiv 112 / 106 40% 1 10.09.2027 -
Luca Martínez Dupuy Godoy Cruz Aktiv 126 / 113 40% 1 10.09.2027 -
Facundo Castro Nueva Chicago Aktiv 115 / 104 40% 1 10.09.2027 -
Junior Paredes Trujillanos Aktiv 112 / 99 40% 5 05.09.2027 -
Juan Rocca Gimnasia y Tiro Aktiv 111 / 105 40% 1 03.09.2027 -
José Balza Deportivo Tachira Aktiv 118 / 113 40% 8 30.08.2027 -
Elías Ayala Madryn Aktiv 111 / 112 40% 1 30.08.2027 -
Lucas Carrizo Lanús Aktiv 120 / 121 40% 1 27.08.2027 -
Brian Blando Agropecuario Argentino Aktiv 107 / 116 40% 2 26.08.2027 -
Daniel Sosah Aktobe Aktiv 113 / 97 40% 1 26.08.2027 -
Tomás Chancalay Minnesota United FC Abgelehnt 136 / 121 40% 3 25.08.2027 Ablehnen
Jonatan Torres Cerro Porteno Aktiv 120 / 129 40% 2 25.08.2027 -
Camilo Machado Madryn Aktiv 105 / 116 40% 1 25.08.2027 -
Liel Abada Charlotte Football Club Aktiv 143 / 146 40% 3 24.08.2027 -
César Magallan Estudiantes de Merida Aktiv 108 / 112 40% 1 24.08.2027 Mehr Infos nötig
Ljupce Doriev Sogdiana Aktiv 113 / 117 40% 4 23.08.2027 -
Silvio Merkaj Vicenza Aktiv 115 / 121 40% 4 20.08.2027 -
Giuseppe Di Serio Spezia Aktiv 133 / 116 40% 2 20.08.2027 -
Matteo Rover Reggiana Aktiv 113 / 121 40% 3 19.08.2027 -
Leonardo Candellone Juve Stabia Aktiv 134 / 126 40% 1 19.08.2027 -
Emanuele Pecorino Catanzaro Aktiv 112 / 121 40% 1 19.08.2027 -
Ettore Gliozzi Mantova Aktiv 115 / 121 40% 2 18.08.2027 -
Oscar Ferraresi Llaneros Aktiv 121 / 107 40% 7 17.08.2027 -
Richard Figueroa Deportivo Lara Aktiv 105 / 110 40% 1 17.08.2027 -
Walid Cheddira Avellino Aktiv 129 / 118 40% 1 15.08.2027 -
Jonathan Cañete Portuguesa Aktiv 118 / 101 40% 13 14.08.2027 -
John Yeboah Venezia Aktiv 121 / 116 40% 2 13.08.2027 -
Giuseppe Sibilli Juve Stabia Aktiv 122 / 134 40% 1 13.08.2027 -
Alberto Cerri Cesena Aktiv 112 / 134 40% 1 12.08.2027 -
Emanuele Schimmenti Potenza Aktiv 106 / 122 40% 1 12.08.2027 -
Emil Riis Leicester City Aktiv 136 / 118 40% 1 06.08.2027 -
Aaron Drinan Swindon Town Aktiv 106 / 119 40% 1 06.08.2027 -
Jhon Murillo America de Cali Aktiv 121 / 113 40% 4 02.08.2027 -
Giacomo Zecca Torres Aktiv 107 / 107 40% 1 02.08.2027 -
Richard Celis Zamora Aktiv 109 / 105 40% 6 01.08.2027 -
Bernat Guiu Virtus Entella Aktiv 128 / 115 40% 1 01.08.2027 -
David Okereke Cremonese Aktiv 135 / 127 40% 1 30.07.2027 -
Mohamed Mallahi Pro Vercelli Aktiv 104 / 115 40% 1 30.07.2027 -
Nicola Dalmonte Trento Aktiv 115 / 112 40% 1 23.07.2027 -
Filippo Distefano Empoli Aktiv 117 / 110 40% 1 22.07.2027 -
Rafael Arace Deportivo Tachira Aktiv 108 / 110 40% 2 21.07.2027 -
Jalen Blesa Rio Ave Aktiv 117 / 133 40% 7 21.07.2027 -
Adalberto Peñaranda Deportivo Tachira Verloren 121 / 124 40% 7 05.06.2027 -
Clemente Montes Universidad Catolica Verloren 124 / 126 40% 1 05.06.2027 -
Edarlyn Reyes Arsenal Tula Aktiv 106 / 112 40% 13 30.05.2027 -
Dilan Ortíz Ufa Aktiv 109 / 91 40% 3 28.05.2027 -
Lucio Castillo Colegiales Aktiv 102 / 113 40% 5 27.05.2027 -
Elias Manoel Tijuana Verloren 123 / 111 40% 5 23.05.2027 Beobachten
Chinedu Geoffrey Krylya Sovetov Verloren 125 / 115 40% 11 20.05.2027 Beobachten
Thalys Almería Aktiv 129 / 135 40% 7 20.05.2027 -
Vyacheslav Grulev Nizhniy Novgorod Aktiv 106 / 108 40% 4 18.05.2027 -
Dardan Shabanhaxhaj Rubin Aktiv 122 / 120 40% 2 14.05.2027 -
Rob Street Lincoln City Aktiv 105 / 113 40% 2 09.05.2027 -
Franco García Ferro Carril Oeste Aktiv 112 / 106 40% 2 07.05.2027 -
Slobodan Tedić Akron Aktiv 104 / 117 40% 1 07.05.2027 -
Mikhail Ignatov Sochi Aktiv 107 / 117 40% 4 03.05.2027 -
Denzel Jubitana Neftchi Aktiv 118 / 109 40% 7 29.04.2027 -
Ichem Ferrah Pisa Aktiv 102 / 118 40% 1 27.04.2027 -
Xavier Biscayzacú Sporting CP Aktiv 129 / 131 40% 5 26.04.2027 -
German Onugkha Rodina Aktiv 111 / 129 40% 6 19.04.2027 -
François Kamano Sochi Aktiv 109 / 117 40% 3 16.04.2027 -
Valentín Quevedo Colegiales Aktiv 111 / 100 40% 1 12.04.2027 -
Brayan Gil Baltika Aktiv 121 / 125 40% 9 06.04.2027 -
Nathan Fogaça Fortaleza Aktiv 120 / 128 40% 3 05.04.2027 -
Gamid Agalarov Dinamo Makhachkala Aktiv 119 / 116 40% 3 30.03.2027 -
César Magallan Estudiantes de Merida Verloren 105 / 107 40% 3 29.03.2027 Mehr Infos nötig
Yeangel Montero Naxxar Lions Aktiv 102 / 93 40% 5 14.03.2027 -
Moussakoye Diallo Stade Malien Aktiv 112 / 102 40% 3 13.03.2027 -
Chinonso Offor Baltika Aktiv 106 / 113 40% 2 13.03.2027 -
Georgy Melkadze Akhmat Grozny Aktiv 120 / 115 40% 3 11.03.2027 -
Tenton Yenne Baltika Aktiv 111 / 94 40% 5 09.03.2027 -
Rafiki Saïd Wolverhampton Aktiv 116 / 105 40% 1 09.03.2027 -
Tommaso Cecotti Carpi Aktiv 101 / 97 40% 1 08.03.2027 -
Gladson Sulemana Liberty Professionals Aktiv 80 / 88 40% 1 08.03.2027 -
Jacques Siwe Rubin Aktiv 125 / 101 40% 4 04.03.2027 -
Vladimir Khubulov Dinamo Makhachkala Aktiv 112 / 98 40% 2 28.02.2027 -
Jakub Bednarczyk Gornik Leczna Aktiv 115 / 94 40% 1 27.02.2027 -
Yegor Golenkov Rostov Aktiv 107 / 111 40% 4 26.02.2027 -
Ľubomír Tupta Neftchi Aktiv 116 / 109 40% 2 26.02.2027 -
Naoufal Bannis Vitesse Aktiv 99 / 95 40% 2 25.02.2027 -
Bahlul Mammadov Inter Aktiv 119 / 131 40% 5 24.02.2027 -
Alexandr Rudenko Lokomotiv Moscow Aktiv 116 / 120 40% 2 18.02.2027 -
Cheickna Samaké Djoliba Aktiv 96 / 116 40% 2 18.02.2027 -
Job Ochieng Real Sociedad Aktiv 96 / 113 40% 3 08.02.2027 -
Vladislav Sarveli Nizhniy Novgorod Aktiv 98 / 103 40% 1 19.01.2027 -
Fabricio Oviedo Rosario Central Aktiv 108 / 106 40% 1 12.01.2027 -
Chuchu Ramírez Nacional Aktiv 132 / 138 40% 6 30.11.2026 -
Lucas Besozzi Lanús Aktiv 117 / 113 40% 1 30.11.2026 -
Alexei Dominguez Pachuca Aktiv 106 / 100 40% 8 26.11.2026 -
Sam Nombe Milton Keynes Dons Aktiv 104 / 124 40% 2 24.11.2026 -
Stephen Humphrys Bradford City Aktiv 111 / 119 40% 2 22.11.2026 -
Jhon Aponza Boca Juniors Aktiv 110 / 107 40% 1 21.11.2026 -
Breel Embolo Atlanta United FC Aktiv 147 / 138 40% 2 20.11.2026 -
Manprit Sarkaria Austria Wien Aktiv 114 / 125 40% 1 19.11.2026 -
Enzo Larrosa Independiente Medellin Aktiv 112 / 104 40% 1 16.11.2026 -
Troy Parrott Betis Aktiv 148 / 143 40% 1 13.11.2026 -
Sandi Elsnik NK Domzale Aktiv 113 / 108 40% 1 10.11.2026 -
Bojan Radulović Huddersfield Town Aktiv 114 / 100 40% 4 08.11.2026 -
Jáder Obrian Santa Fe Aktiv 111 / 114 40% 1 08.11.2026 -
Lucas González Nacional Aktiv 109 / 98 40% 9 03.11.2026 -
Luifer Hernández Puebla Aktiv 107 / 114 40% 1 02.11.2026 -
Dario Vizinger NK Maribor Aktiv 117 / 101 40% 5 27.10.2026 -
Luka Zahovič NK Maribor Aktiv 103 / 123 40% 2 24.10.2026 -
Freddy Molina Union Magdalena Aktiv 94 / 83 40% 1 24.10.2026 -
Veljko Birmančević Ferencvaros Aktiv 124 / 146 40% 1 22.10.2026 -
Gonzalo Ríos Independiente Rivadavia Aktiv 124 / 121 40% 1 18.10.2026 -
Marcus Browne AFC Wimbledon Aktiv 98 / 116 40% 1 18.10.2026 -
Gonzalo Córdoba Mitre Aktiv 104 / 110 40% 1 11.10.2026 -
Víctor Machado Independiente Rivadavia Aktiv 95 / 97 40% 1 09.10.2026 -
Alexis Steimbach Gimnasia La Plata Aktiv 114 / 121 40% 1 05.10.2026 -
Matías Pellegrini Vélez Aktiv 126 / 108 40% 1 05.10.2026 -
Alejo Gelsomino Gimnasia La Plata Aktiv 105 / 96 40% 1 05.10.2026 -
Kristian Eriksen Molde Aktiv 128 / 110 40% 1 29.09.2026 -
Franco García Colón Aktiv 120 / 126 40% 2 28.09.2026 -
Isaac Matondo Koper Aktiv 97 / 98 40% 1 28.09.2026 -
Genaro Rossi San Martín SJ Aktiv 115 / 109 40% 3 24.09.2026 -
Hansel Zapata FC Augsburg Aktiv 104 / 111 40% 1 20.09.2026 -
Manu Nieto Andorra Aktiv 108 / 100 40% 2 18.09.2026 -
Ramiro Ruiz Rodríguez Atlético Tucumán Aktiv 123 / 124 40% 3 16.09.2026 -
Mariano Peralta Bauer Defensa y Justicia Aktiv 100 / 115 40% 1 12.09.2026 -
Shota Shekiladze Dila Aktiv 115 / 101 40% 2 11.09.2026 -
Tio Cipot NK Maribor Aktiv 104 / 109 40% 1 10.09.2026 -
Davit Volkovi Zira Aktiv 121 / 101 40% 1 06.09.2026 -
Angel Bastunov Vizela Aktiv 109 / 115 40% 1 01.09.2026 -
Francisco Galván Deportivo Municipal Aktiv 108 / 99 40% 2 30.08.2026 -
Steven Nsimba Universitatea Craiova Aktiv 120 / 117 40% 1 30.08.2026 -
Ignacio Sabatini Gimnasia y Esgrima Aktiv 107 / 106 40% 1 26.08.2026 -
Flamarion Pakhtakor Aktiv 112 / 104 40% 2 24.08.2026 -
Husain Norchayev Navbahor Aktiv 127 / 130 40% 1 24.08.2026 -
Dani Escriche Apollon Aktiv 126 / 100 40% 2 21.08.2026 -
Bobur Abdiholiqov Nasaf Aktiv 126 / 123 40% 1 20.08.2026 -
Sory Diarra Haugesund Aktiv 93 / 101 40% 1 16.08.2026 -
Blaž Kramer NK Celje Aktiv 96 / 122 40% 1 16.08.2026 -
Jasur Yaxshiboyev Lokomotiv Aktiv 115 / 94 40% 1 09.08.2026 -
Macaulay Langstaff Millwall Aktiv 111 / 113 40% 1 08.08.2026 -
Marc Gual Kairat Aktiv 106 / 108 40% 1 08.08.2026 -
Rubin Hebaj Tobol Aktiv 111 / 112 40% 1 04.08.2026 -
Everton Moraes Ordabasy Aktiv 119 / 102 40% 1 04.08.2026 -
Sebastián Ferreira Olimpia Aktiv 125 / 127 40% 1 01.08.2026 -